Regional Weather Roundup
Issued by NWS

Home | Current Version | Previous Version | Graphics & Text | Print | Product List | Glossary On
Versions: 1 2 3 4 5 6 7 8 9 10 11 12 13 14 15 16 17 18 19 20 21 22 23 24 25 26 27 28 29 30 31 32 33 34 35 36 37 38 39 40 41 42 43 44 45 46 47 48 49 50
000
ASUS45 KCYS 230510
RWRWY

WYOMING REGIONAL WEATHER ROUNDUP
NATIONAL WEATHER SERVICE CHEYENNE WY
1100 PM MDT FRI AUG 22 2014

NOTE:  "FAIR" INDICATES FEW OR NO CLOUDS BELOW 12,000 FEET
WITH NO SIGNIFICANT WEATHER AND/OR OBSTRUCTIONS TO VISIBILITY.

WYZ001-230600-
YELLOWSTONE NATIONAL PARK

CITY           SKY/WX    TMP DP  RH WIND       PRES   REMARKS
LK YELLOWSTONE   N/A     44  41  89 CALM      30.15F
W YELLOWSTONE  NOT AVBL

$$
WYZ002>013-054>058-071-098>099-230600-
NORTHERN WYOMING

CITY           SKY/WX    TMP DP  RH WIND       PRES   REMARKS
JACKSON        CLOUDY    46  46 100 SE3       30.10F
CODY           CLOUDY    55  52  88 NE7       30.06S
GREYBULL       RAIN      60  57  89 NW20      29.97F
WORLAND        CLOUDY    60  57  89 W9        30.00R
SHERIDAN       CLOUDY    59  56  89 CALM      29.99F
BUFFALO        CLOUDY    57  54  89 CALM      30.05F
GILLETTE       CLOUDY    61  59  93 E12       30.02F
HULETT         HVY RAIN  59  57  94 MISG      30.06
NEWCASTLE      FAIR      68  54  60 SE18      30.02

$$
WYZ014>020-022>026-101>103-230600-
CENTRAL WYOMING

CITY           SKY/WX    TMP DP  RH WIND       PRES   REMARKS
BIG PINEY      LGT RAIN  47  45  93 SE12      30.13F
PINEDALE       CLOUDY    46  45  93 S3        30.16S
DUBOIS         CLOUDY    46  43  87 W5        30.10F
LANDER         LGT RAIN  55  52  89 N6        30.03S
RIVERTON       LGT RAIN  54  51  90 NW12      30.04S
CASPER         CLOUDY    60  55  83 NE7       30.01F
DOUGLAS        CLOUDY    64  55  72 SE13      30.00F

$$
WYZ021-027>030-104>119-230600-
SOUTHERN WYOMING

CITY           SKY/WX    TMP DP  RH WIND       PRES   REMARKS
EVANSTON       LGT RAIN  48  46  93 SE7       30.15F
KEMMERER       LGT RAIN  45  45 100 SW10      30.18F
FORT BRIDGER     N/A     48  48  99 SE5       30.20F
ROCK SPRINGS   LGT RAIN  47  45  93 W13       30.17S
DIXON          CLOUDY    59  51  75 CALM      30.10S
RAWLINS        CLOUDY    61  47  59 CALM      30.08F
SARATOGA       RAIN      59  50  72 MISG      30.10S
LARAMIE        PTCLDY    54  52  93 SE16G25   30.10F
CHEYENNE       CLOUDY    58  55  90 SW12      30.09F
TORRINGTON     CLOUDY    62  60  93 E3        29.99F
PINE BLUFFS    FAIR      57  55  94 CALM      30.04F

$$



USA.gov is the U.S. government's official web portal to all federal, state and local government web resources and services.